GW0468 Weather Reports


time (UTC)temp
F
wind
direction
speed
knots
gust
knots
rain 1hr
in
rain 24hr
in
rain mn
in
humidity
%
barometer
mb
20260504100506 0 0.0 0.0 0.00 0.00 0.00 1014.3
20260504081946 61 128 0.0 0.9 0.00 0.00 0.00 1 1015.2
20260504081444 61 128 0.0 0.9 0.00 0.00 0.00 1 1015.3
20260504080946 61 140 0.0 1.7 0.00 0.00 0.00 1 1015.4
20260504050434 63 127 0.9 2.6 0.00 0.00 0.00 14 1017.4
20260504045936 63 127 0.9 2.6 0.00 0.00 0.00 13 1017.4
20260504045435 63 144 0.0 0.9 0.00 0.00 0.00 13 1017.7
20260504044935 63 151 0.0 2.6 0.00 0.00 0.00 17 1017.7
20260504044433 63 135 0.9 2.6 0.00 0.00 0.00 22 1017.7
20260504043936 63 130 1.7 2.6 0.00 0.00 0.00 22 1017.7
20260504043434 63 134 0.9 1.7 0.00 0.00 0.00 21 1017.8
20260504042433 64 138 0.9 2.6 0.00 0.00 0.00 22 1017.8
20260504041433 64 164 0.9 1.7 0.00 0.00 0.00 28 1017.8
20260504040935 64 133 0.0 1.7 0.00 0.00 0.00 29 1017.7
20260504040433 64 135 0.0 0.9 0.00 0.00 0.00 35 1017.8
20260504035936 64 134 0.0 0.9 0.00 0.00 0.00 37 1018.0
20260504035432 64 134 0.0 0.9 0.00 0.00 0.00 36 1018.1
20260504034433 65 134 0.0 1.7 0.00 0.00 0.00 38 1017.9
20260504033433 65 133 0.9 2.6 0.00 0.00 0.00 44 1017.8
20260504032935 65 137 0.9 1.7 0.00 0.00 0.00 44 1017.8
20260504032432 65 142 0.0 0.9 0.00 0.00 0.00 45 1017.8
20260504031934 65 142 0.0 0.9 0.00 0.00 0.00 47 1017.8
20260504031432 65 151 0.0 0.9 0.00 0.00 0.00 48 1017.9
20260504030934 65 151 0.0 1.7 0.00 0.00 0.00 50 1017.9
20260504030432 66 158 0.0 1.7 0.00 0.00 0.00 53 1017.9
20260504025934 66 141 0.0 1.7 0.00 0.00 0.00 54 1017.8
20260504025431 66 142 0.9 1.7 0.00 0.00 0.00 56 1017.6
20260504024933 67 137 0.9 1.7 0.00 0.00 0.00 57 1017.8
20260504023934 67 142 0.9 4.3 0.00 0.00 0.00 59 1017.8
20260504023430 67 142 0.9 4.3 0.00 0.00 0.00 60 1017.6
20260504022935 67 158 1.7 4.3 0.00 0.00 0.00 61 1017.6
20260504021431 68 138 1.7 4.3 0.00 0.00 0.00 61 1017.2
20260504020431 68 135 1.7 2.6 0.00 0.00 0.00 60 1017.3
20260504015933 68 147 0.0 2.6 0.00 0.00 0.00 61 1017.2
20260504015431 68 130 0.9 3.5 0.00 0.00 0.00 62 1017.2
20260504014932 69 152 1.7 6.1 0.00 0.00 0.00 62 1017.2
20260504014429 69 155 1.7 6.1 0.00 0.00 0.00 63 1017.1
20260504013930 69 171 1.7 4.3 0.00 0.00 0.00 63 1017.1
20260504013429 69 133 1.7 3.5 0.00 0.00 0.00 63 1017.0
20260504012933 70 131 1.7 4.3 0.00 0.00 0.00 63 1017.0
20260504012427 70 133 2.6 5.2 0.00 0.00 0.00 63 1017.1
20260504011931 70 166 2.6 5.2 0.00 0.00 0.00 63 1017.1
20260504011429 70 145 1.7 4.3 0.00 0.00 0.00 62 1017.0
20260504010932 71 151 2.6 4.3 0.00 0.00 0.00 62 1016.9
20260504010430 71 155 2.6 4.3 0.00 0.00 0.00 62 1017.0
20260504005931 72 134 1.7 5.2 0.00 0.00 0.00 62 1016.9
20260504005428 72 124 1.7 5.2 0.00 0.00 0.00 61 1017.1
20260504004930 73 133 1.7 7.8 0.00 0.00 0.00 60 1017.1
20260504004428 73 159 1.7 8.7 0.00 0.00 0.00 57 1017.0
20260504003930 74 142 3.5 8.7 0.00 0.00 0.00 57 1017.2
20260504003429 74 148 3.5 7.8 0.00 0.00 0.00 57 1017.1
20260504002931 74 128 4.3 8.7 0.00 0.00 0.00 56 1017.0
20260504002429 75 135 4.3 8.7 0.00 0.00 0.00 56 1017.0
20260504001928 75 157 4.3 7.8 0.00 0.00 0.00 56 1017.2
20260504001427 75 142 3.5 8.7 0.00 0.00 0.00 56 1017.2
20260504000930 76 186 3.5 8.7 0.00 0.00 0.00 56 1017.2
20260504000427 76 155 4.3 9.6 0.00 0.00 0.00 55 1017.1
20260503235931 76 169 4.3 10.4 0.00 0.00 0.00 54 1017.2
20260503235427 76 147 4.3 10.4 0.00 0.00 0.00 54 1017.1
20260503234930 76 154 5.2 12.2 0.00 0.00 0.00 54 1017.2
20260503234428 76 147 6.1 12.2 0.00 0.00 0.00 53 1017.1
20260503233928 77 149 7.8 12.2 0.00 0.00 0.00 53 1017.1
20260503232930 77 162 5.2 9.6 0.00 0.00 0.00 53 1017.0
20260503231927 78 152 4.3 12.2 0.00 0.00 0.00 53 1017.0
20260503231428 78 169 6.1 9.6 0.00 0.00 0.00 49 1017.2
20260503230927 78 137 5.2 8.7 0.00 0.00 0.00 50 1017.1
20260503230427 78 172 5.2 11.3 0.00 0.00 0.00 48 1017.1
20260503225929 78 173 7.0 11.3 0.00 0.00 0.00 44 1017.2
20260503225426 78 131 7.0 11.3 0.00 0.00 0.00 43 1017.4
20260503224928 78 127 3.5 11.3 0.00 0.00 0.00 42 1017.4
20260503224426 79 130 5.2 9.6 0.00 0.00 0.00 43 1017.4
20260503223928 79 102 4.3 8.7 0.00 0.00 0.00 44 1017.4
20260503223427 79 103 4.3 11.3 0.00 0.00 0.00 43 1017.5
20260503222929 78 169 4.3 11.3 0.00 0.00 0.00 42 1017.4
20260503222424 78 80 4.3 9.6 0.00 0.00 0.00 40 1017.4
20260503221424 79 166 5.2 11.3 0.00 0.00 0.00 41 1017.7
20260503220926 79 125 3.5 12.2 0.00 0.00 0.00 42 1017.7
20260503220425 79 152 7.8 12.2 0.00 0.00 0.00 41 1017.8
20260503215425 79 117 8.7 12.2 0.00 0.00 0.00 42 1017.7
20260503214426 80 128 4.3 9.6 0.00 0.00 0.00 37 1017.9
20260503213925 80 89 1.7 7.8 0.00 0.00 0.00 36 1018.0
20260503213425 80 159 3.5 9.6 0.00 0.00 0.00 38 1018.1
20260503212928 80 138 4.3 9.6 0.00 0.00 0.00 42 1018.2
20260503212425 80 140 3.5 7.8 0.00 0.00 0.00 42 1018.2
20260503211925 80 204 2.6 7.8 0.00 0.00 0.00 39 1018.3
20260503211424 80 159 3.5 10.4 0.00 0.00 0.00 40 1018.3
20260503210925 80 141 4.3 10.4 0.00 0.00 0.00 40 1018.4
20260503210425 80 180 5.2 10.4 0.00 0.00 0.00 40 1018.5
20260503205926 80 159 4.3 8.7 0.00 0.00 0.00 39 1018.7
20260503205423 80 99 2.6 8.7 0.00 0.00 0.00 40 1018.8
20260503204926 80 120 2.6 7.8 0.00 0.00 0.00 40 1018.7
20260503204423 80 162 3.5 8.7 0.00 0.00 0.00 39 1018.8
20260503203925 80 157 5.2 8.7 0.00 0.00 0.00 40 1019.0
20260503203423 80 111 5.2 8.7 0.00 0.00 0.00 40 1019.0
20260503202423 79 244 0.9 6.1 0.00 0.00 0.00 41 1019.2
20260503201924 79 96 3.5 10.4 0.00 0.00 0.00 41 1019.3
20260503200925 79 94 2.6 11.3 0.00 0.00 0.00 40 1019.4
20260503200423 80 137 3.5 11.3 0.00 0.00 0.00 42 1019.5
20260503195924 79 180 2.6 9.6 0.00 0.00 0.00 42 1019.4
20260503195423 79 110 5.2 9.6 0.00 0.00 0.00 40 1019.6
20260503194924 80 189 3.5 8.7 0.00 0.00 0.00 41 1019.6
20260503194422 80 221 3.5 9.6 0.00 0.00 0.00 44 1019.6
20260503193924 80 154 5.2 9.6 0.00 0.00 0.00 43 1019.7
20260503193423 80 179 1.7 7.8 0.00 0.00 0.00 40 1019.7
20260503192925 80 128 5.2 10.4 0.00 0.00 0.00 42 1019.9
20260503192421 80 204 3.5 10.4 0.00 0.00 0.00 43 1019.9
20260503191422 80 159 3.5 9.6 0.00 0.00 0.00 42 1020.1
20260503190923 80 168 2.6 6.1 0.00 0.00 0.00 42 1020.2
20260503190421 79 80 4.3 5.2 0.00 0.00 0.00 45 1020.1
20260503185924 78 134 2.6 6.1 0.00 0.00 0.00 44 1020.1
20260503185420 79 144 2.6 8.7 0.00 0.00 0.00 44 1020.2
20260503184922 78 155 5.2 8.7 0.00 0.00 0.00 45 1020.4
20260503184421 78 66 2.6 6.1 0.00 0.00 0.00 44 1020.6
20260503183421 78 109 4.3 11.3 0.00 0.00 0.00 46 1020.7
20260503182922 78 100 7.0 11.3 0.00 0.00 0.00 46 1020.8
20260503182421 78 73 5.2 7.8 0.00 0.00 0.00 45 1020.8
20260503181920 78 109 1.7 8.7 0.00 0.00 0.00 44 1020.9
20260503181420 78 79 3.5 12.2 0.00 0.00 0.00 46 1021.0
20260503175921 78 180 3.5 7.8 0.00 0.00 0.00 43 1021.4
20260503175420 78 161 4.3 7.8 0.00 0.00 0.00 46 1021.5
20260503174922 78 110 4.3 8.7 0.00 0.00 0.00 46 1021.6
20260503172921 77 159 3.5 7.8 0.00 0.00 0.00 43 1021.7
20260503172420 76 298 0.9 11.3 0.00 0.00 0.00 43 1021.8
20260503171921 77 120 7.8 11.3 0.00 0.00 0.00 46 1021.9
20260503171420 77 166 4.3 6.1 0.00 0.00 0.00 42 1022.0
20260503170920 77 106 0.9 6.1 0.00 0.00 0.00 42 1022.0
20260503170419 77 116 2.6 4.3 0.00 0.00 0.00 44 1022.1
20260503150917 74 128 0.0 0.0 0.00 0.00 0.00 56 1022.4
20260503150417 73 166 0.0 0.0 0.00 0.00 0.00 60 1022.4
20260503130914 62 303 0.0 0.0 0.00 0.00 0.00 1 1021.7
20260503110735 0 0.0 0.0 0.00 0.00 0.00 1020.3